[[{"header":{"parameterUnit":"m.s-1","parameterCategory":1,"la1":30.2992,"la2":30.254,"lo1":-89.0895,"lo2":-89.0443,"dy":0.0025,"dx":0.0025,"nx":19,"ny":19,"refTime":"2026-05-04T03:00:00:Z","depth":0,"parameterNumber":2,"parameterNumberName":"U-component_of_WINDS"},"data":[0,0,0,-1.4527,-1.4529,-1.4625,-1.4626,-1.4739,-1.474,0,0,0,0,0,0,0,0,0,0,0,-1.4494,-1.4494,-1.4527,-1.453,-1.4625,-1.4626,-1.4738,-1.474,0,0,0,0,0,0,0,0,0,0,0,-1.4494,-1.4494,-1.4495,-1.453,-1.4625,-1.4626,-1.4738,-1.4669,0,0,0,0,0,0,0,0,0,0,-1.4578,-1.4542,-1.4494,-1.4495,-1.453,-1.4625,-1.4626,-1.4666,-1.4673,-1.4691,0,-1.4706,0,-1.4725,-1.4747,-1.4747,0,0,0,-1.4533,-1.4536,-1.4566,-1.4495,-1.4531,-1.4625,-1.4583,-1.467,-1.4679,-1.4701,-1.4708,-1.4713,-1.4727,-1.4747,-1.4748,-1.484,-1.484,0,0,-1.4528,-1.4508,-1.456,-1.4571,-1.4557,-1.458,-1.4586,-1.4676,-1.4682,-1.4709,-1.4715,-1.4729,-1.4748,-1.4749,-1.484,-1.484,0,0,0,-1.451,-1.4504,-1.4533,-1.4567,-1.4585,-1.4583,-1.459,-1.4678,-1.4689,-1.4717,-1.473,-1.4749,-1.475,-1.4839,-1.484,-1.4833,0,0,0,-1.4507,-1.4494,-1.453,-1.4519,-1.4583,-1.4633,-1.459,-1.4682,-1.4693,-1.4729,-1.4749,-1.4751,-1.4839,-1.4839,-1.4833,-1.4833,0,0,0,-1.4489,-1.4492,-1.4504,-1.4518,-1.4559,-1.4632,-1.4648,-1.4685,-1.4701,-1.4747,-1.4751,-1.4839,-1.4839,-1.4832,-1.4832,-1.4851,0,0,0,-1.4464,-1.4497,-1.4504,-1.4545,-1.4558,-1.4627,-1.4648,-1.47,-1.4739,-1.4749,-1.4839,-1.484,-1.4832,-1.4832,-1.485,-1.4862,-1.4865,0,0,-1.4495,-1.45,-1.4526,-1.4535,-1.4598,-1.4614,-1.4676,-1.473,-1.4752,-1.4809,-1.4812,-1.4833,-1.4832,-1.4851,-1.4893,-1.4895,0,0,0,-1.4529,-1.4547,-1.4568,-1.4605,-1.4647,-1.4683,-1.4729,-1.4749,-1.4799,-1.4778,-1.4846,-1.4846,-1.4857,-1.4864,-1.4866,-1.4877,-1.4842,-1.4842,-1.4842,-1.4542,-1.4569,-1.4614,-1.4653,-1.4687,-1.4735,-1.4766,-1.4801,-1.4818,-1.4833,-1.485,-1.4872,-1.4879,-1.4881,-1.4891,-1.4859,-1.4859,-1.4859,-1.4859,-1.4588,-1.4618,-1.464,-1.4691,-1.4719,-1.4762,-1.4809,-1.482,-1.4863,-1.4862,-1.4873,-1.4868,-1.4882,-1.4893,-1.4859,-1.4859,-1.4859,-1.4859,-1.4859,-1.4599,-1.4618,-1.4642,-1.4697,-1.4736,-1.4775,-1.4815,-1.484,-1.4863,-1.4874,-1.4894,-1.4894,-1.4896,-1.4882,-1.4882,-1.4882,-1.4883,-1.4883,-1.4883,-1.46,-1.4628,-1.4659,-1.4707,-1.4734,-1.4771,-1.482,-1.4846,-1.4882,-1.4896,-1.4896,-1.4911,-1.4879,-1.487,-1.4884,-1.4884,-1.4884,-1.4883,-1.4883,-1.4634,-1.463,-1.4679,-1.4706,-1.4764,-1.48,-1.4832,-1.4883,-1.4909,-1.4928,-1.4941,-1.4914,-1.4921,-1.4919,-1.4912,-1.4935,-1.4935,-1.4935,-1.4935,-1.4642,-1.4649,-1.4704,-1.4744,-1.4787,-1.482,-1.4873,-1.4912,-1.495,-1.4967,-1.4968,-1.496,-1.4958,-1.4966,-1.4964,-1.4957,-1.4992,-1.4992,-1.4992,-1.4664,-1.4676,-1.4717,-1.4755,-1.4802,-1.4842,-1.4893,-1.4938,-1.4981,-1.4995,-1.4981,-1.4979,-1.4967,-1.4962,-1.4974,-1.4969,-1.4958,0,0]},{"header":{"parameterUnit":"m.s-1","parameterCategory":1,"la1":30.2992,"la2":30.254,"lo1":-89.0895,"lo2":-89.0443,"dy":0.0025,"dx":0.0025,"nx":19,"ny":19,"refTime":"2026-05-04T03:00:00:Z","depth":0,"parameterNumber":3,"parameterNumberName":"V-component_of_WINDS"},"data":[0,0,0,-0.8743,-0.8743,-0.8747,-0.8747,-0.8755,-0.8755,0,0,0,0,0,0,0,0,0,0,0,-0.8744,-0.8745,-0.8743,-0.8743,-0.8747,-0.8747,-0.8755,-0.8755,0,0,0,0,0,0,0,0,0,0,0,-0.8744,-0.8744,-0.8745,-0.8743,-0.8747,-0.8747,-0.8755,-0.8751,0,0,0,0,0,0,0,0,0,0,-0.8747,-0.875,-0.8744,-0.8745,-0.8743,-0.8747,-0.8747,-0.8751,-0.8752,-0.8755,0,-0.8759,0,-0.8757,-0.8756,-0.8756,0,0,0,-0.8742,-0.875,-0.8749,-0.8745,-0.8744,-0.8747,-0.8745,-0.8751,-0.8752,-0.8756,-0.8759,-0.8759,-0.8757,-0.8756,-0.8756,-0.878,-0.878,0,0,-0.8742,-0.8746,-0.8748,-0.8749,-0.8748,-0.8745,-0.8745,-0.8752,-0.8755,-0.8759,-0.8759,-0.8757,-0.8756,-0.8756,-0.878,-0.878,0,0,0,-0.8742,-0.8746,-0.8745,-0.8749,-0.8749,-0.8745,-0.8745,-0.8755,-0.8754,-0.8759,-0.8758,-0.8756,-0.8757,-0.878,-0.878,-0.8791,0,0,0,-0.8742,-0.8746,-0.8745,-0.8748,-0.8749,-0.8752,-0.8748,-0.8754,-0.8754,-0.8757,-0.8756,-0.8757,-0.8779,-0.878,-0.8791,-0.8796,0,0,0,-0.8744,-0.8747,-0.8748,-0.8748,-0.8749,-0.8752,-0.8751,-0.8754,-0.8753,-0.8756,-0.8757,-0.8779,-0.878,-0.879,-0.8795,-0.8803,0,0,0,-0.8747,-0.8759,-0.8748,-0.8761,-0.8749,-0.8759,-0.8751,-0.8758,-0.8762,-0.8756,-0.8779,-0.878,-0.879,-0.8795,-0.8802,-0.881,-0.8813,0,0,-0.8765,-0.8762,-0.8769,-0.8759,-0.8772,-0.8758,-0.8772,-0.8773,-0.877,-0.8777,-0.8777,-0.8791,-0.8795,-0.8803,-0.8833,-0.8836,0,0,0,-0.8776,-0.8782,-0.8784,-0.8787,-0.8787,-0.8787,-0.8784,-0.8784,-0.879,-0.8774,-0.8796,-0.8799,-0.8803,-0.8806,-0.8809,-0.8812,-0.8782,-0.8782,-0.8782,-0.8809,-0.8803,-0.8815,-0.8809,-0.8813,-0.8809,-0.8811,-0.881,-0.8805,-0.881,-0.8812,-0.8831,-0.8835,-0.8837,-0.884,-0.8816,-0.8816,-0.8816,-0.8816,-0.8835,-0.8841,-0.8832,-0.884,-0.8833,-0.884,-0.8837,-0.8832,-0.8838,-0.8829,-0.8833,-0.8823,-0.884,-0.8842,-0.8817,-0.8817,-0.8816,-0.8816,-0.8816,-0.8855,-0.8857,-0.8856,-0.8859,-0.8862,-0.8856,-0.8861,-0.8856,-0.8851,-0.8855,-0.8855,-0.8855,-0.8854,-0.8855,-0.8856,-0.8856,-0.8856,-0.8856,-0.8856,-0.8876,-0.8874,-0.8879,-0.8878,-0.8879,-0.8879,-0.8875,-0.8876,-0.8875,-0.8871,-0.8871,-0.8864,-0.8843,-0.8837,-0.8857,-0.8857,-0.8856,-0.8856,-0.8856,-0.8904,-0.8896,-0.8903,-0.8904,-0.8902,-0.8905,-0.8898,-0.89,-0.89,-0.8902,-0.8894,-0.8879,-0.8876,-0.8874,-0.8869,-0.8896,-0.8896,-0.8896,-0.8896,-0.892,-0.8917,-0.8922,-0.8923,-0.8924,-0.8918,-0.8925,-0.8922,-0.8918,-0.8917,-0.8912,-0.8906,-0.8904,-0.8902,-0.8899,-0.8894,-0.8927,-0.8927,-0.8927,-0.8936,-0.8933,-0.894,-0.8935,-0.8933,-0.8931,-0.8938,-0.894,-0.8934,-0.8928,-0.8916,-0.8915,-0.8904,-0.8901,-0.8895,-0.8891,-0.8883,0,0]}]]